CW4132 Weather Reports


time (UTC)temp
F
wind
direction
speed
knots
gust
knots
rain 1hr
in
rain 24hr
in
rain mn
in
humidity
%
barometer
mb
20210723151636 79 254 0.0 0.0 0.00 0.00 0.00 73 1022.9
20210723150044 79 168 0.0 0.0 0.00 0.00 0.00 78 1022.6
20210723144537 78 168 0.0 0.0 0.00 0.00 0.00 73 1022.8
20210723143010 77 209 0.0 0.0 0.00 0.00 0.00 77 1022.8
20210723141636 76 209 0.0 0.0 0.00 0.00 0.00 79 1022.9
20210723140115 74 209 0.0 0.0 0.00 0.00 0.00 85 1023.0
20210723134609 73 209 0.0 0.0 0.00 0.00 0.00 85 1023.1
20210723133216 72 223 0.0 0.9 0.00 0.00 0.00 88 1023.0
20210723131632 71 290 0.0 0.0 0.00 0.00 0.00 87 1022.9
20210723130027 70 290 0.0 0.0 0.00 0.00 0.00 87 1022.9
20210723124633 69 290 0.0 0.0 0.00 0.00 0.00 87 1022.6
20210723124517 69 290 0.0 0.0 0.00 0.00 0.00 87 1022.6
20210723123109 69 290 0.0 0.0 0.00 0.00 0.00 87 1022.5
20210723121740 68 290 0.0 0.0 0.00 0.00 0.00 87 1022.6
20210723120134 68 290 0.0 0.0 0.00 0.00 0.00 87 1022.4
20210723114619 67 290 0.0 0.0 0.00 0.00 0.00 87 1022.4
20210723113010 67 290 0.0 0.0 0.00 0.00 0.00 87 1022.3
20210723111606 66 290 0.0 0.0 0.00 0.00 0.00 87 1022.2
20210723110105 66 290 0.0 0.0 0.00 0.00 0.00 87 1022.1
20210723104558 65 290 0.0 0.0 0.00 0.00 0.00 87 1021.9
20210723103151 66 290 0.0 0.0 0.00 0.00 0.00 87 1021.7
20210723103009 66 290 0.0 0.0 0.00 0.00 0.00 87 1021.7
20210723101629 66 290 0.0 0.0 0.00 0.00 0.00 87 1021.7
20210723100219 66 290 0.0 0.0 0.00 0.00 0.00 87 1021.5
20210723100038 66 290 0.0 0.0 0.00 0.00 0.00 87 1021.5
20210723094605 66 290 0.0 0.0 0.00 0.00 0.00 87 1021.4
20210723093122 66 290 0.0 0.0 0.00 0.00 0.00 87 1021.3
20210723091757 66 290 0.0 0.0 0.00 0.00 0.00 87 1021.2
20210723090115 66 290 0.0 0.0 0.00 0.00 0.00 87 1021.3
20210723084554 66 290 0.0 0.0 0.00 0.00 0.00 87 1021.1
20210723083031 67 290 0.0 0.0 0.00 0.00 0.00 87 1021.1
20210723081625 67 290 0.0 0.0 0.00 0.00 0.00 87 1020.9
20210723080055 67 290 0.0 0.0 0.00 0.00 0.00 87 1020.8
20210723074656 67 290 0.0 0.0 0.00 0.00 0.00 87 1020.7
20210723073048 67 290 0.0 0.0 0.00 0.00 0.00 87 1020.8
20210723071503 67 290 0.0 0.0 0.00 0.00 0.00 87 1021.1
20210723070108 67 290 0.0 0.0 0.00 0.00 0.00 87 1021.2
20210723064556 68 290 0.0 0.0 0.00 0.00 0.00 87 1021.3
20210723063015 68 290 0.0 0.0 0.00 0.00 0.00 87 1021.4
20210723061631 68 290 0.0 0.0 0.00 0.00 0.00 87 1021.5
20210723060248 68 290 0.0 0.0 0.00 0.00 0.00 87 1021.6
20210723054658 69 290 0.0 0.0 0.00 0.00 0.00 87 1021.8
20210723053243 69 290 0.0 0.0 0.00 0.00 0.00 87 1021.9
20210723051604 69 290 0.0 0.0 0.00 0.00 0.00 87 1021.8
20210723050016 69 290 0.0 0.0 0.00 0.00 0.00 87 1021.9
20210723044631 69 290 0.0 0.0 0.00 0.00 0.00 87 1022.0
20210723043129 69 290 0.0 0.0 0.00 0.00 0.00 87 1022.0
20210723041550 70 290 0.0 0.0 0.00 0.00 0.00 87 1021.9
20210723040036 70 290 0.0 0.0 0.00 0.00 0.00 87 1021.9
20210723034507 70 290 0.0 0.0 0.00 0.00 0.00 87 1021.9
20210723033118 71 290 0.0 0.0 0.00 0.00 0.00 87 1022.0
20210723031646 71 290 0.0 0.0 0.00 0.00 0.00 87 1022.0
20210723030120 71 290 0.0 0.0 0.00 0.00 0.00 87 1022.2
20210723024546 71 290 0.0 0.0 0.00 0.00 0.00 87 1022.1
20210723023019 72 290 0.0 0.0 0.00 0.00 0.00 87 1022.0
20210723021734 72 290 0.0 0.0 0.00 0.00 0.00 87 1021.9
20210723020039 72 290 0.0 0.0 0.00 0.00 0.00 87 1021.7
20210723014624 73 290 0.0 0.0 0.00 0.00 0.00 87 1021.7
20210723013022 73 290 0.0 0.0 0.00 0.00 0.00 86 1021.5
20210723011805 73 290 0.0 0.0 0.00 0.00 0.00 86 1021.3
20210723010123 74 290 0.0 0.0 0.00 0.00 0.00 85 1021.2
20210723004554 74 290 0.0 0.0 0.00 0.00 0.00 85 1021.2
20210723003045 75 290 0.0 0.0 0.00 0.00 0.00 84 1021.2
20210723001755 75 290 0.0 0.0 0.00 0.00 0.00 83 1021.0
20210723000110 76 290 0.0 0.0 0.00 0.00 0.00 83 1020.8
20210722234559 77 290 0.0 0.0 0.00 0.00 0.00 82 1020.6
20210722233045 77 290 0.0 0.0 0.00 0.00 0.00 80 1020.5
20210722231501 78 146 0.0 0.0 0.00 0.00 0.00 78 1020.4
20210722230118 79 213 0.0 0.0 0.00 0.00 0.00 75 1020.4
20210722224616 81 213 0.0 0.0 0.00 0.00 0.00 74 1020.4
20210722223025 81 213 0.0 0.0 0.00 0.00 0.00 74 1020.1
20210722221505 82 213 0.0 0.0 0.00 0.00 0.00 73 1020.1
20210722220102 83 213 0.0 0.0 0.00 0.00 0.00 72 1020.0
20210722214801 83 213 0.0 0.0 0.00 0.00 0.00 70 1020.0
20210722213117 83 213 0.0 0.0 0.00 0.00 0.00 72 1019.9
20210722211605 82 213 0.0 0.0 0.00 0.00 0.00 74 1019.9
20210722210023 82 213 0.0 0.0 0.00 0.00 0.00 72 1019.9
20210722204740 83 213 0.0 0.0 0.00 0.00 0.00 69 1020.0
20210722203110 82 213 0.0 0.0 0.00 0.00 0.00 72 1020.0
20210722201550 84 213 0.0 0.0 0.00 0.00 0.00 69 1020.0
20210722200018 84 213 0.0 0.0 0.00 0.00 0.00 71 1020.1
20210722194633 83 213 0.0 0.0 0.00 0.00 0.00 71 1020.0
20210722193137 82 232 0.0 0.0 0.00 0.00 0.00 70 1020.0
20210722191622 84 290 0.0 0.0 0.00 0.00 0.00 72 1020.0
20210722190029 84 290 0.0 0.0 0.00 0.00 0.00 73 1020.3
20210722184654 83 288 0.0 0.0 0.00 0.00 0.00 71 1020.3
20210722183116 83 288 0.0 0.0 0.00 0.00 0.00 74 1020.5
20210722181549 81 288 0.0 0.0 0.00 0.00 0.00 75 1020.5
20210722180005 81 288 0.0 0.0 0.00 0.00 0.00 76 1020.7
20210722174507 81 288 0.0 0.0 0.00 0.00 0.00 75 1020.7
20210722173150 82 288 0.0 0.0 0.00 0.00 0.00 77 1020.8
20210722171755 81 288 0.0 0.0 0.00 0.00 0.00 75 1020.9
20210722170122 81 288 0.0 0.0 0.00 0.00 0.00 78 1020.9
20210722164559 82 288 0.0 0.0 0.00 0.00 0.00 75 1021.0
20210722163148 81 281 0.0 0.0 0.00 0.00 0.00 77 1021.0
20210722161526 80 281 0.0 0.0 0.00 0.00 0.00 77 1021.2
20210722160155 80 177 0.0 0.0 0.00 0.00 0.00 76 1021.2
20210722160010 80 177 0.0 0.0 0.00 0.00 0.00 76 1021.2
20210722154642 79 186 0.0 0.0 0.00 0.00 0.00 77 1021.3
20210722153056 79 221 0.0 0.0 0.00 0.00 0.00 77 1021.4